Location: Arbon
(43.0005°N, 0.7472°E)
Time: 09:55:13
(UTC+00:00)

SR - Pass Details

Date: 01 December 2020
Orbit: 575 x 880 km, 66.7° (Epoch: 21 January)

Event Time Altitude Azimuth Distance (km) Brightness Sun altitude
Rises 19:35:45 0° 270° (W) 2,859 ? -34.5°
Reaches altitude 10° 19:39:26 10° 303° (WNW) 2,016 ? -35.2°
Enters shadow 19:40:50 12° 321° (NW) 1,921 ? -35.4°
Maximum altitude 19:41:09 12° 325° (NW) 1,923 - -35.5°
Drops below altitude 10° 19:42:55 10° 348° (NNW) 2,083 - -35.8°
Sets 19:46:55 0° 19° (NNE) 3,084 - -36.6°
